Weather History for KTAD - December, 2012

Change the Weather History Date:

Wednesday, December 12, 2012

  Actual Average Record
Temperature  
Mean Temperature 33 °F 31 °F  
Max Temperature 47 °F 46 °F 68 °F (1957)
Min Temperature 18 °F 17 °F -15 °F (1961)
Degree Days  
Heating Degree Days 32 34  
Month to date heating degree days 341 391  
Since 1 July heating degree days 1389 1624  
Cooling Degree Days 0 0  
Month to date cooling degree days 0 0  
Year to date cooling degree days 1175 719  
Moisture  
Dew Point 17 °F    
Average Humidity 54    
Maximum Humidity 70    
Minimum Humidity 37    
Precipitation  
Precipitation 0.00 in 0.02 in 0.33 in (1967)
Month to date precipitation 0.17 0.22  
Year to date precipitation 13.52  
Sea Level Pressure  
Sea Level Pressure 29.94 in    
Wind  
Wind Speed 8 mph (West)    
Max Wind Speed 17 mph    
Max Gust Speed 23 mph    
Visibility 10 miles    
Events      
T = Trace of Precipitation, MM = Missing Value Source: NWS Daily Summary

Daily Weather History Graph

Daily Weather History Graph

Search for Another Location

Airport or City:

Trip Planner

Search our weather history database for the weather conditions in past years. The results will help you decide how hot, cold, wet, or windy it might be!

Date:

Astronomy

Dec. 12, 2012 Rise Set
Actual Time 7:02 AM MST 4:40 PM MST
Civil Twilight 6:33 AM MST 5:09 PM MST
Nautical Twilight 6:00 AM MST 5:42 PM MST
Astronomical Twilight 5:28 AM MST 6:13 PM MST
Moon 6:09 AM MST (12/12) 4:19 PM MST (12/12)
Length of Visible Light 10h 36m
Length of Day
9h 38m
Waning Crescent, 0% of the Moon is Illuminated
Dec 12
Waning Crescent
Dec 13
New
Dec 19
First Quarter
Dec 28
Full
Jan 4
Last Quarter

Hourly Weather History & Observations

Time (MST) Temp. Windchill Dew Point Humidity Pressure Visibility Wind Dir Wind Speed Gust Speed Precip Events Conditions
12:54 AM 21.9 °F 9.8 °F 8.1 °F 55% 29.94 in 10.0 mi West 12.7 mph - N/A   Clear
1:54 AM 21.0 °F 7.6 °F 9.0 °F 60% 29.93 in 10.0 mi WSW 15.0 mph - N/A   Clear
2:54 AM 21.0 °F 9.3 °F 8.1 °F 57% 29.92 in 10.0 mi WSW 11.5 mph - N/A   Clear
3:54 AM 19.0 °F 6.1 °F 7.0 °F 59% 29.93 in 10.0 mi West 12.7 mph - N/A   Clear
4:54 AM 23.0 °F 11.7 °F 8.1 °F 53% 29.94 in 10.0 mi West 11.5 mph - N/A   Clear
5:54 AM 19.0 °F 7.5 °F 8.1 °F 62% 29.99 in 10.0 mi West 10.4 mph - N/A   Clear
6:54 AM 23.0 °F 11.7 °F 9.0 °F 55% 29.97 in 10.0 mi WNW 11.5 mph - N/A   Clear
7:54 AM 23.0 °F 15.8 °F 9.0 °F 55% 30.01 in 10.0 mi NNW 5.8 mph - N/A   Clear
8:54 AM 32.0 °F 23.0 °F 12.0 °F 44% 29.96 in 10.0 mi West 11.5 mph 19.6 mph N/A   Clear
9:54 AM 37.0 °F 30.4 °F 16.0 °F 42% 29.96 in 10.0 mi WNW 9.2 mph - N/A   Clear
10:54 AM 44.1 °F 38.1 °F 19.0 °F 37% 29.94 in 10.0 mi NW 11.5 mph - N/A   Clear
11:54 AM 43.0 °F 39.5 °F 24.1 °F 47% 29.92 in 10.0 mi SSE 5.8 mph - N/A   Clear
12:54 PM 42.1 °F 39.2 °F 27.0 °F 55% 29.91 in 10.0 mi South 4.6 mph - N/A   Clear
1:54 PM 43.0 °F 40.3 °F 27.0 °F 53% 29.91 in 10.0 mi SSE 4.6 mph - N/A   Clear
2:54 PM 44.1 °F 42.5 °F 28.0 °F 53% 29.90 in 10.0 mi South 3.5 mph - N/A   Clear
3:54 PM 42.1 °F 40.2 °F 24.1 °F 49% 29.92 in 10.0 mi South 3.5 mph - N/A   Clear
4:54 PM 39.0 °F 34.0 °F 27.0 °F 62% 29.93 in 10.0 mi NW 6.9 mph - N/A   Clear
5:54 PM 36.0 °F 29.6 °F 27.0 °F 70% 29.97 in 10.0 mi WNW 8.1 mph - N/A   Clear
6:54 PM 36.0 °F 29.6 °F 25.0 °F 64% 29.96 in 10.0 mi WNW 8.1 mph - N/A   Clear
7:54 PM 42.1 °F - 19.9 °F 41% 29.95 in 10.0 mi Calm Calm - N/A   Clear
8:54 PM 37.9 °F 33.5 °F 19.0 °F 47% 29.95 in 10.0 mi Variable 5.8 mph - N/A   Clear
9:54 PM 39.9 °F 36.7 °F 16.0 °F 38% 29.93 in 10.0 mi WNW 4.6 mph - N/A   Clear
10:54 PM 37.9 °F 33.5 °F 16.0 °F 41% 29.93 in 10.0 mi West 5.8 mph - N/A   Clear
11:54 PM 39.0 °F 34.0 °F 14.0 °F 36% 29.94 in 10.0 mi West 6.9 mph - N/A   Clear